Location: Casilda
(33.0440°S, 61.1680°W)
Time: 11:23:32
(UTC-03:00)

ISS - Pass Details

Date: 16 October 2019
Orbit: 411 x 421 km, 51.6° (Epoch: 18 October)

Event Time Altitude Azimuth Distance (km) Brightness Sun altitude
Rises 21:12:42 0° 314° (NW) 2,343 0.3 -23.3°
Reaches altitude 10° 21:14:47 10° 313° (NW) 1,489 -0.8 -23.7°
Enters shadow 21:15:12 13° 313° (NW) 1,317 -1.1 -23.8°
